Location: Champseau
(45.8333°N, 1.7667°E)
Time: 02:15:40
(UTC+00:00)

BEESAT 3 - Visible Passes

Search period start: 29 November 2021 00:00
Search period end: 09 December 2021 00:00
Orbit: 477 x 511 km, 64.9° (Epoch: 28 November)

Date Brightness Start Highest point End Pass type
(mag) Time Alt. Az. Time Alt. Az. Time Alt. Az.
29 Nov ? 05:01:46 69° N 05:02:07 76° NE 05:06:00 10° SE visible
29 Nov ? 06:37:30 10° W 06:38:43 11° WSW 06:39:57 10° SW visible
30 Nov ? 04:40:29 47° ESE 04:40:29 47° ESE 04:43:25 10° SE visible
30 Nov ? 06:15:04 12° W 06:16:15 13° WSW 06:18:03 10° SW visible
01 Dec ? 04:19:17 22° SE 04:19:17 22° SE 04:20:50 10° SE visible
01 Dec ? 05:53:53 15° WSW 05:53:53 15° WSW 05:55:58 10° SSW visible
02 Dec ? 03:58:10 10° SE 03:58:10 10° SE 03:58:13 10° SE visible
02 Dec ? 05:32:45 14° SW 05:32:45 14° SW 05:33:47 10° SSW visible
05 Dec ? 18:08:41 10° SSE 18:09:37 15° SSE 18:09:37 15° SSE visible
06 Dec ? 17:46:19 10° SSE 17:48:24 19° SE 17:48:24 19° SE visible
06 Dec ? 19:22:29 10° WSW 19:22:58 13° WSW 19:22:58 13° WSW visible
07 Dec ? 17:23:59 10° SSE 17:26:36 18° ESE 17:27:05 18° ESE visible
07 Dec ? 18:59:47 10° SW 19:01:40 26° WSW 19:01:40 26° WSW visible
08 Dec ? 17:01:42 10° SSE 17:04:02 16° ESE 17:05:41 12° E visible
08 Dec ? 18:37:05 10° SW 18:40:15 47° W 18:40:15 47° W visible
